Location: Seattle
(47.6064°N, 122.3308°W)
Time: 15:01:40
(UTC-08:00)

S-56A Canister/Altair - Pass Details

Date: 10 October 2022
Orbit: 638 x 2494 km, 38.9° (Epoch: 03 December)

Event Time Altitude Azimuth Distance (km) Brightness Sun altitude
Exits shadow 04:43:46 37° 204° (SSW) 2,132 9.4 -26.9°
Drops below altitude 10° 04:50:16 10° 144° (SE) 3,017 10.7 -25.9°
Sets 04:52:47 0° 135° (SE) 3,757 11.4 -25.5°
